Starlink 35700

operational
NORAD ID: 66218 Int'l Des: 2025-244 Owner: SPXS Country: US Constellation: starlink
NOTLE

Starlink 35700について

説明を読み込み中...

リアルタイム位置

3D地球を読み込み中...

次回通過

高度履歴

Altitude vs Time

uPlot chart will show altitude changes over time

軌道要素

1 66218C 25244M 25301.74006944 .03341200 00000+0 46673-2 0 3012
2 66218 53.1569 134.0809 0010964 274.4078 337.4443 16.01833199 11
Epoch: Oct 28, 2025 • Age: 90 hours

現在のステータス

高度 184.1 km
速度 7.80 km/s
衛星直下点 -45.00°S, 28.94°E
打ち上げ日 Oct 28, 2025
運用期間 3 days
タイプ internet

技術仕様

分類 Payload
質量 575.00 kg
乾燥質量 530.00 kg
総質量 575.00 kg
長さ 0.30 m
直径 4.10 m
スパン 29.00 m
形状 Box + pan
製造者 SPXS
バスタイプ Starlink V2MO
フェーズステータス In Orbit
所有者/国 SPXS/US

大規模コンステレーション

Loading constellations...